FENGYUN 1C DEB, 30322

Orbit data source: Space-Track

FENGYUN 1C DEB, 30322 is space debris in SSO originally from a launch on Mon, 10 May 1999 UTC launched from the Taiyaun Space Center, China (TSC). Fengyun 1C debris stems from the Chinese weather satellite Fengyun-1C, which was intentionally destroyed by a Chinese anti-satellite missile in 2007. This event dramatically increased the amount of space debris, with thousands of trackable fragments posing hazards to satellites and human spaceflight. The Fengyun 1C debris cloud has become a focal point in discussions about space sustainability and the need for international regulations to prevent the creation of new debris.

Loading next visibility...
Identifier
30322, 1999-025AAK
Orbit
SSO
Last TLE update
12 hours ago
Origin
Manufacturer
Unknown
Mission
Spacecraft
Bus & Motor
Unknown
Mass
Unknown
Launch date (UTC)
1999-05-10 (26 years ago)
Launch vehicle
Unknown
Launch site
Taiyaun Space Center, China (TSC)
Object type
Payload
Rocket body
Debris
Shape & HBR
Unknown
Radar Cross Section
Small (<0.1 m²)

Expand to show TLE details & history

TLE from 12 hours ago
0 FENGYUN 1C DEB
1 30322U 99025AAK 25200.13872632  .00001322  00000-0  78222-3 0  9998
2 30322  98.4135  68.3381 0127119 309.9201  49.0851 14.05363114942792
Epoch: 2025-07-19T03:19Z
TLE epoch observation values (Epoch: 2025-07-19T03:19:45.954Z)
Latitude
-0.00003°
Longitude
81.2165°
Altitude
818.465 km
Speed
7.474 km/s
True Right ascension
04h 33m 21s
True Declination
0° 00' 00"
Sunlit
Object was in daylight at epoch
Visualization orbit readout
Latitude
81.02357°
Longitude
-29.6364°
Altitude
963.672 km
Speed
7.338 km/s
Apparent Right ascension
17h 19m 56s
Apparent Declination
30° 14' 33"
Sunlit
Object is in daylight
Visualization observer readout
Local Sidereal Time
04:34:18
Azimuth
349.586° N
Elevation
-19.046°
Doppler factor
1
Orbital elements
Apogee altitude
964.615 km
Perigee altitude
780.278 km
Semi-major axis
7,250.583 km
Eccentricity
0.01271
Inclination
98.4135°
RAAN
68.3381°
Arg. of periapsis
309.9201°
True anomaly
50.19739°
Mean anomaly
49.0851°
Eccentric anomaly
49.64009°
Mean motion
3.51547 °/min
Orbital period
102.4 mins
BSTAR
0.00078222
Loading maneuver chart data...
Loading SW <> Apogee altitude chart data...
Loading historical data...
Loading historical data...
Loading historical data...
Loading historical data...
Loading historical data...
Loading historical data...
Loading historical data...
|